STARLINK-32748, 62524

Orbit data source: Space-Track

STARLINK-32748, 62524 is a payload satellite owned by SpaceX/Seattle (US) in LEO that was launched on Wed, 08 Jan 2025 UTC via an FALCON 9 launch vehicle from the Air Force Eastern Test Range (AFETR). Payloads include a variety of satellites, spacecraft, and rockets equipped with specific instruments for various scientific and technological missions. These include communications satellites like Starlink; space stations such as the ISS; scientific satellites like the Hubble; Earth observation satellites from companies like Planet Labs, Umbra, and HawkEye 360; GPS; miniature CubeSats for education and research; and military/defense satellites.

Loading next visibility...
STARLINK-32748 details
Identifier
62524, 2025-004P
Orbit
LEO
Last TLE update8 hours ago
Origin
Flag of USSpaceX/Seattle (US)
ManufacturerSpaceX/Seattle
MissionOperational spacecraft
Bus & MotorSTARLINK V2M, Unknown motor
Mass730 kg wet, ~700 kg dry
Launch date (UTC)
2025-01-08 (1 month ago)
Launch vehicle
FALCON 9
Launch site
Air Force Eastern Test Range (AFETR)
Object type
Payload
Rocket body
Debris
Shape & HBRUnknown
Radar Cross SectionLarge (>1 m²)

Expand to show TLE details & history

TLE from 8 hours ago
0 STARLINK-32748
1 62524U 25004P   25035.83335648 -.01521799  00000-0 -37768-1 0  9993
2 62524  42.9992 311.9847 0001473 261.5729  16.4740 15.42693122  5378
Epoch: 2025-02-04T20:00Z
Definitive object data (Epoch: 2025-02-04T20:00:01.999Z)
Latitude-42.63554°
Longitude157.66951°
Altitude450.324 km
Speed7.643 km/s
True Right ascension15h 31m 38s
True Declination-42° 27' 23"
Sunlit
Object was in daylight at TLE epoch
Visualization TLE readout
Latitude-15.59185°
Longitude-142.50161°
Altitude444.113 km
Speed7.647 km/s
Apparent Right ascension18h 53m 38s
Apparent Declination-27° 36' 45"
Sunlit
Object is in daylight
Visualization observer readout
Local Sidereal Time06:03:24
Azimuth315.993° NNW
Elevation-73.898°
Doppler factor1
Orbital elements
Apogee altitude441.127 km
Perigee altitude439.119 km
Semi-major axis6,818.26 km
Eccentricity0.0001473
Inclination42.9992°
RAAN311.9847°
Arg. of periapsis261.5729°
True anomaly16.47879°
Mean anomaly16.474°
Eccentric anomaly16.47639°
Mean motion3.85508 °/min
BSTAR-0.037768
Orbital period93.38 mins
Loading maneuver chart data...
Loading historical data...
Loading historical data...
Loading historical data...
Loading historical data...
Loading historical data...
Loading historical data...
Loading historical data...

STARLINK-32748 Visibility forecast

Observer location: undefined°, undefined

Span
Click to sort rows by Start time (UTC) header in descending order
Start Az.
Max El. time (UTC)
Max El. Az.
Max El.
End time (UTC)
End Az.
4 mins2025-02-05 21:28:37.945Z197.615° SSW2025-02-05 21:29:37.945Z165.671° S30.835°2025-02-05 21:32:37.945Z86.6° E
5 mins2025-02-05 23:05:37.945Z268.793° W2025-02-05 23:07:37.945Z308.096° NW40.243°2025-02-05 23:10:37.945Z67.524° E
5 mins2025-02-06 00:44:37.945Z298.231° NW2025-02-06 00:46:37.945Z16.855° NNE38.101°2025-02-06 00:49:37.945Z82.406° E
5 mins2025-02-06 02:22:37.945Z280.66° WNW2025-02-06 02:24:37.945Z219.197° SW42.256°2025-02-06 02:27:37.945Z122.121° SE
|